Regional Weather Roundup
Issued by NWS Grand Forks, ND

Home | Current Version | Previous Version | Graphics & Text | Print | Product List | Glossary On
Versions: 1 2 3 4 5 6 7 8 9 10 11 12 13 14 15 16 17 18 19 20 21 22 23 24 25 26 27 28 29 30 31 32 33 34 35 36 37 38 39 40 41 42 43 44 45 46 47 48 49 50
000
ASUS43 KFGF 211910
RWRFGF
PRAIRIE TO PINES  WEATHER ROUNDUP
NATIONAL WEATHER SERVICE EASTERN NORTH DAKOTA/GRAND FORKS ND
200 PM CDT MON AUG 21 2017

 **SATELLITE DATA USED TO AUGMENT SKY COVER AT AUTOMATED STATIONS**
 *****  WEATHER ACROSS EASTERN NORTH DAKOTA  *****

CITY           SKY/WX    TMP DP  RH WIND       PRES   REMARKS
GRAND FORKS    PTSUNNY   71  58  63 N14       29.90F
GRAND FRKS AFB PTSUNNY   70  55  57 NE8       29.91F
DEVILS LAKE    FAIR      67  55  65 SW3       29.93S
FARGO          FAIR      71  60  68 S9        29.88F
WAHPETON ARPT  FAIR      66  59  77 S8        29.90S
$$

 ***** WEATHER ACROSS CENTRAL AND WESTERN NORTH DAKOTA  *****

CITY           SKY/WX    TMP DP  RH WIND       PRES   REMARKS
BISMARCK       FAIR      74  55  51 NW15G24   29.98R
MINOT          FAIR      74  44  34 NW25G35   29.99R
JAMESTOWN      FAIR      71  56  58 NW18      29.91S
MINOT AFB      FAIR      73  42  33 NW23G32   29.98R
GARRISON         N/A     73  44  35 NW30G39   29.99R
WILLISTON      FAIR      73  41  31 NW15G24   30.10R
DICKINSON      FAIR      72  43  35 N20G26    30.08R
HETTINGER      FAIR      73  41  31 N21G28    30.10R
$$

 *****  OTHER AIRPORT OBSERVATIONS IN OUR AREA  *****

CITY           SKY/WX    TMP DP  RH WIND       PRES   REMARKS
WALHALLA       FAIR      64  64 100 VRB3      29.91F
GRAFTON AIRPOR MOCLDY    63  61  94 SE5       29.92F
VALLEY CITY AR   N/A     70  61  73 W10       29.92S
CANDO          FAIR      68  61  77 SW6       29.95S
CAVALIER APRT  MOCLDY    64  57  77 CALM      29.91S
GWINNER        CLEAR     68  61  77 SW5G13    29.91R
SHEYENNE NWR     N/A     68  61  79 SW9       29.95S
ROLLA          FAIR      68  54  60 W8        29.94S
 ***** THE ABOVE OBSERVATIONS ARE NON NWS ARE NOT QUALITY
       CONTROLLED AND MAY MIS-REPORT RAIN FOR SNOW...
$$

  *****  WEATHER ACROSS NORTHERN MINNESOTA  *****

CITY           SKY/WX    TMP DP  RH WIND       PRES   REMARKS
FLAG ISLAND    FAIR      64  52  63 CALM      29.92F
WARROAD        FAIR      63  59  88 CALM      29.94F
ROSEAU           N/A     64  57  77 CALM      29.94S
HALLOCK        LGT RAIN  63  61  94 SE8       29.90F
THF RVR FALLS  CLOUDY    68  52  56 NW3       29.93F
BAUDETTE       CLOUDY    64  58  80 NE6       29.93F
WASKISH        RAIN      64  57  77 E3        29.92F
CROOKSTON      FAIR      72  54  53 SW5       29.91F
STEPHEN NDAWN    N/A     63  59  88 E3          N/A
GREENBUSH NDAW   N/A     64  57  77 E2          N/A
$$
  *****  WEATHER ACROSS CENTRAL AND WEST MINNESOTA  *****

CITY           SKY/WX    TMP DP  RH WIND       PRES   REMARKS
FOSSTON        FAIR      68  52  56 S3        29.91F
BEMIDJI        FAIR      66  54  63 S6        29.92F
PARK RAPIDS    FAIR      67  56  67 SE5       29.89F
ELBOW LAKE     CLOUDY    67  63  85 SW8       29.91R FOG
WADENA         FAIR      68  57  68 E5        29.88F
DETROIT LAKES  FAIR      68  55  64 S3        29.90F
MOORHEAD       FAIR      70  61  73 S7        29.88F
FERGUS FALLS   FAIR      70  61  73 S7        29.89S
MORRIS MN      FAIR      66  64  94 SW12      29.90R
STAPLES        FAIR      68  55  64 SE5       29.88F
$$
  *****  WEATHER ELSEWHERE ACROSS MINNESOTA  *****

CITY           SKY/WX    TMP DP  RH WIND       PRES   REMARKS
DULUTH         PTSUNNY   64  58  80 NE6       29.94F
INTRNTL FALLS  CLOUDY    66  58  75 CALM      29.94F
ELY            LGT RAIN  64  54  68 CALM      29.99F
CLOQUET        PTSUNNY   64  54  68 E3        29.94F
WHEATON        FAIR      66  61  82 S5        29.91S
BRAINERD       FAIR      68  59  73 SE8       29.89F
HIBBING        CLOUDY    60  57  89 SE5       29.93F
ALEXANDRIA     FAIR      67  61  81 SE6       29.90S
SAINT CLOUD    FAIR      65  65 100 E5        29.89F
MINNEAPOLIS    CLOUDY    77  64  64 SE7       29.93F
$$

  *****  WEATHER ACROSS SOUTH DAKOTA  *****

CITY           SKY/WX    TMP DP  RH WIND       PRES   REMARKS
SIOUX FALLS    TSTM      68  67  96 CALM      30.02R VSB 1
BROOKINGS      LGT RAIN  66  65  96 S13       29.91F
WATERTOWN      FAIR      65  64  97 NW9       29.92R
HURON          FAIR      67  64  90 N14       29.88R
SISSETON         N/A     68  64  87 VRB5      29.89F
ABERDEEN       FAIR      64  59  83 SW5       29.94S
MITCHELL       FAIR      69  65  86 SE23G39   29.75F
PIERRE         FAIR      67  63  87 NW9       29.97S
MOBRIDGE       NOT AVBL
RAPID CITY     FAIR      71  46  40 N16G23    30.11R
$$

  *****  SOME WEATHER IN NEARBY STATES *****

CITY           SKY/WX    TMP DP  RH WIND       PRES   REMARKS
GLASGOW MT     CLOUDY    71  36  27 N10       30.16R
GREAT FALLS MT FAIR      71  33  24 VRB6      30.20S
CHEYENNE WY    FAIR      73  35  25 N22G30    30.23R
SCOTTSBLUFF NE FAIR      79  55  43 N16       30.12R
OMAHA NE       PTSUNNY   78  68  71 S25       29.95F
DES MOINES IA  CLOUDY    75  68  78 S10       29.97F
DAVENPORT IA   FAIR      76  68  76 E3        30.02F
CHICAGO IL     CLOUDY    80  71  74 S6        30.03F
EAU CLAIRE WI  FAIR      76  69  79 S6        29.95F
LA CROSSE WI   FAIR      79  65  62 SW5       29.97S
$$

  *****  SOME NATIONAL WEATHER *****

CITY           SKY/WX    TMP DP  RH WIND       PRES   REMARKS
LA GUARDIA NY  PTSUNNY   84  65  52 S14       30.13F
RALEIGH NC     FAIR      88  69  53 SE6       30.18F HX  92
ATLANTA GA     FAIR      88  68  51 E9        30.17F HX  91
NEW ORLEANS LA PTSUNNY   89  73  59 NE9       30.07F HX  97
OKLAHOMA CITY  FAIR      87  71  58 S12       30.06S HX  93
ALBUQUERQUE NM FAIR      70  58  65 SW7       30.25S
SALT LAKE CITY FAIR      87  46  24 N6        30.13S
LOS ANGELES CA FAIR      74  62  66 W10       30.01S
BOISE ID       FAIR      76  42  29 NW8       30.12R
SEATTLE WA     FAIR      73  53  49 N8        30.13R
$$

*** WEATHER ACROSS MANITOBA...SASKATCHEWAN AND ONTARIO ***
                ***ONTARIO***

CITY           SKY/WX    TMP DP  RH WIND       PRES   REMARKS
GERALDTON      PTSUNNY   70  48  46 W12       29.95F
THUNDER BAY    CLOUDY    73  52  46 VRB2      29.96F
SIOUX LOOKOUT  LGT RAIN  64  52  63 SW6       29.97F
TORONTO        PTSUNNY   84  66  54 SW10      30.04F
BIG TROUT LK   SUNNY     70  46  43 W15G23    29.72F
PICKLE LAKE    PTSUNNY   72  46  40 W12G22    29.88S
DRYDEN         LGT RAIN  61  50  67 NW3       29.98F
KENORA         LGT RAIN  57  54  88 NE7       29.96F
$$
                *** MANITOBA***

CITY           SKY/WX    TMP DP  RH WIND       PRES   REMARKS
BRANDON        MOSUNNY   64  50  59 NE13G21   29.96R
DAUPHIN        SUNNY     70  52  52 W9        29.93F
ISLAND LAKE    MOSUNNY   72  45  37 W10       29.77S
PILOT MOUND      N/A     68  55  64 S13         N/A
THE PAS        MOSUNNY   68  48  49 W14G22    29.89S
THOMPSON       CLOUDY    64  46  52 NW13G21   29.79R
WINNIPEG       CLOUDY    61  54  77 NE6       29.93F
LYNN LAKE      CLOUDY    59  50  72 MISG      29.85R
CHURCHILL      FOG       50  50 100 NE17G24   29.78R VSB 1
GILLAM         LGT RAIN  54  54 100 N13       29.74S
$$
                ***SASKATCHEWAN***

CITY           SKY/WX    TMP DP  RH WIND       PRES   REMARKS
ESTEVAN        MOSUNNY   72  41  33 NW20G28   30.06R
KINDERSLEY     MOSUNNY   66  34  30 NW6       30.16R
LLOYDMINSTER   PTSUNNY   66  46  48 W14G21    30.11S
PRINCE ALBERT  MOSUNNY   68  43  40 NW18G25   30.06R
REGINA         MOSUNNY   70  36  28 NW22G29   30.09R
YORKTON        SUNNY     68  45  42 W18G25    30.02R
N. BATTLEFORD  SUNNY     68  45  42 W17       30.12S
LA RONGE       MOSUNNY   68  45  42 NW18      29.97S
SASKATOON      MOSUNNY   68  41  37 W14G21    30.11R
SWIFT CURRENT  SUNNY     66  32  28 N12G17    30.16S
$$
NOTE: THESE ARE AUTOMATED STATIONS WITH LIMITED QUALITY CONTROL
      "FAIR" INDICATES FEW OR NO CLOUDS BELOW 12,000 FEET WITH NO
      SIGNIFICANT WEATHER AND/OR OBSTRUCTIONS TO VISIBILITY.
      SKY/WX - SKY CONDITION AND SIGNIFICANT WEATHER.
      TMP - AIR TEMPERATURE.    DP   - DEWPOINT TEMPERATURE.
      RH  - RELATIVE HUMIDITY.  PRES - PRESSURE.
      HX  - HEAT INDEX.         WCI  - WIND CHILL INDEX.
$




USA.gov is the U.S. government's official web portal to all federal, state and local government web resources and services.